COSMOS 252 DEB, 19479

Orbit data source: Space-Track

COSMOS 252 DEB, 19479 is space debris in LEO originally from a launch on Fri, 01 Nov 1968 UTC launched from the Tyuratam Missile And Space Complex (TTMTR). Debris objects in space refer to the collection of defunct objects orbiting the Earth. Examples of debris include non-operational satellites, rocket bodies, and fragments generated from explosions, collisions, or faulty payload assembly.

Loading next visibility...
Identifier
19479, 1968-097ET
Orbit
LEO
Country
Flag of CISCIS
Related business
Manufacturer
Unknown
Mission
Spacecraft
Bus & Motor
Unknown
Mass
Unknown
Launch date (UTC)
1968-11-01 (57 years ago)
Launch vehicle
Unknown
Launch site
Tyuratam Missile And Space Complex (TTMTR)
Object type
Payload
Rocket body
Debris
Shape & HBR
Unknown shape, 0.1 m
Radar Cross Section
Small (<0.1 m²)

Expand to show TLE details & history
Last TLE update: 20 hours ago

TLE from 20 hours ago
0 COSMOS 252 DEB
1 19479U 68097ET  26121.66824727  .00004440  00000-0  77069-3 0  9998
2 19479  62.7907 222.5418 0579450  72.6199 293.7343 13.96342675885874
Epoch: 2026-05-01T16:02Z
TLE epoch observation values (Epoch: 2026-05-01T16:02:16.564Z)
Latitude
-0°
Longitude
122.37558°
Altitude
759.528 km
Speed
7.551 km/s
True Right ascension
14h 50m 10s
True Declination
0° 00' 00"
Sunlit
Object was in full shadow at epoch
Visualization orbit readout
Latitude
Unknown
Longitude
Unknown
Altitude
Unknown
Speed
Unknown
Apparent Right ascension
Unknown
Apparent Declination
Unknown
Sunlit
N/A
Visualization observer readout
Local Sidereal Time
20:06:13
Azimuth
Unknown
Elevation
Unknown
Doppler factor
Unknown
Orbital elements
Apogee altitude
1,327.402 km
Perigee altitude
483.317 km
Semi-major axis
7,283.496 km
Eccentricity
0.05795
Inclination
62.7907°
RAAN
222.5418°
Arg. of periapsis
72.6199°
True anomaly
287.48604°
Mean anomaly
293.7343°
Eccentric anomaly
290.62713°
Mean motion
3.49167 °/min
Orbital period
103.1 mins
BSTAR
0.00077069
Loading maneuver chart data...
Computing Atmospheric mass density...
Loading historical data...
Loading historical data...
Loading historical data...
Loading historical data...
Loading historical data...
Loading historical data...
Loading historical data...

Documentation

Showing up to 5 results
|